Hourly Data Report for November 25, 2017

All times are specified in Local Standard Time (LST). Add 1 hour to adjust for Daylight Saving Time where and when it is observed.

GREENWOOD A
NOVA SCOTIA

44°59'00.000" N
64°55'00.000" W
28.00 m
8202000
71397
YZX

Download Data

Hourly Data (November 2017)
Hourly Data Report for November 25, 2017
Temp Definition
°C
Dew Point Temp Definition
°C
Rel Hum Definition
%
Wind Dir Definition
10's deg

Wind Spd Definition
km/h
Visibility Definition
km
Stn Press Definition
kPa
Hmdx Definition


Wind Chill Definition


Weather Definition


TIME
00:00 4.2 2.2 87 35 9 24.1 101.15     Cloudy
01:00 4.8 2.8 87 22 11 24.1 101.10     Cloudy
02:00 5.1 3.4 89 35 6 24.1 101.08     Mostly Cloudy
03:00 4.5 3.0 90 18 9 24.1 101.05     Mainly Clear
04:00 4.9 3.2 89 22 9 24.1 101.01     Mostly Cloudy
05:00 5.0 3.7 91 19 9 24.1 100.94     Mainly Clear
06:00 5.8 4.1 89 18 17 24.1 100.89     Mainly Clear
07:00 5.9 4.0 88 23 7 24.1 100.85     Mainly Clear
08:00 5.5 4.5 93 25 9 24.1 100.88     Clear
09:00 7.5 5.3 86 23 9 24.1 100.84     Clear
10:00 9.9 6.2 78 23 9 24.1 100.75     Clear
11:00 11.9 5.7 66 21 13 24.1 100.67     Clear
12:00 13.9 5.5 57 18 32 24.1 100.52     Clear
13:00 14.0 5.1 55 19 19 24.1 100.47     Clear
14:00 14.4 5.4 55 20 30 24.1 100.36     Clear
15:00 15.1 4.9 50 21 22 24.1 100.29     Clear
16:00 13.9 5.5 57 20 22 24.1 100.27     Clear
17:00 10.0 6.1 77 19 19 24.1 100.24     Mainly Clear
18:00 11.5 8.4 81 24 9 24.1 100.25     Mainly Clear
19:00 10.5 7.7 83 18 9 24.1 100.24     Mainly Clear
20:00 9.4 7.5 88 14 4 24.1 100.23     Mainly Clear
21:00 10.0 7.6 85 18 15 24.1 100.16     Clear
22:00 10.4 8.2 86 23 17 24.1 100.12     Mainly Clear
23:00 10.5 8.7 89 27 6 24.1 100.07     Mainly Clear

Notes on Data Quality.

Legend

  • E = Estimated
  • M = Missing
  • NA = Not Available
  • ‡ = Partner data that is not subject to review by the National Climate Archives
Date modified: